Denton, TX

4:03 PM CDT on July 27, 2017 (GMT -0500)
Denton Municipal

Weather History for KDTO - March, 2013

Change the Weather History Date:

Saturday, March 30, 2013

  Actual Average Record
Temperature  
Mean Temperature 64 °F -  
Max Temperature 75 °F 68 °F 87 °F (2008)
Min Temperature 54 °F 47 °F 30 °F (2003)
Growing Degree Days 14 (Base 50)    
Moisture  
Dew Point 58 °F    
Average Humidity 83    
Maximum Humidity 100    
Minimum Humidity 62    
Precipitation  
Precipitation 1.00 in - - ()
Sea Level Pressure  
Sea Level Pressure 29.99 in    
Wind  
Wind Speed 11 mph (South)    
Max Wind Speed 22 mph    
Max Gust Speed 30 mph    
Visibility 9 miles    
Events Rain , Thunderstorm    
Averages and records for this station are not official NWS values.
T = Trace of Precipitation, MM = Missing Value Source: NWS Daily Summary

Daily Weather History Graph

Daily Weather History Graph

Search for Another Location

Airport or City:

Trip Planner

Search our weather history database for the weather conditions in past years. The results will help you decide how hot, cold, wet, or windy it might be!

Date:

Astronomy

Mar. 30, 2013 Rise Set
Actual Time 7:18 AM CDT 7:47 PM CDT
Civil Twilight 6:53 AM CDT 8:12 PM CDT
Nautical Twilight 6:24 AM CDT 8:42 PM CDT
Astronomical Twilight 5:55 AM CDT 9:11 PM CDT
Moon 11:43 PM CDT (3/30) 9:26 AM CDT (3/30)
Length of Visible Light 13h 18m
Length of Day
12h 29m
Waning Gibbous, 86% of the Moon is Illuminated
Mar 30
Waning Gibbous
Apr 2
Last Quarter
Apr 10
New
Apr 18
First Quarter
Apr 25
Full

Hourly Weather History & Observations

Time (CDT) Temp. Dew Point Humidity Pressure Visibility Wind Dir Wind Speed Gust Speed Precip Events Conditions
12:24 AM 66.2 °F 57.2 °F 73% 30.07 in 10.0 mi South 10.4 mph - 0.00 in Thunderstorm Overcast
12:53 AM 57.9 °F 55.9 °F 93% 30.06 in 2.5 mi NW 21.9 mph 29.9 mph 0.13 in Rain , Thunderstorm Heavy Rain
12:58 AM 59.0 °F 55.4 °F 88% 30.09 in 3.0 mi North 11.5 mph 29.9 mph 0.04 in Rain , Thunderstorm Heavy Rain
1:06 AM 59.0 °F 55.4 °F 88% 30.09 in 2.0 mi NNW 13.8 mph 19.6 mph 0.19 in Rain , Thunderstorm Heavy Rain
1:33 AM 57.2 °F 55.4 °F 94% 30.09 in 1.5 mi NNW 6.9 mph 19.6 mph 0.66 in Rain , Thunderstorm Heavy Thunderstorms and Rain
1:43 AM 57.2 °F 55.4 °F 94% 30.10 in 2.0 mi SW 9.2 mph - 0.77 in Rain , Thunderstorm Heavy Thunderstorms and Rain
1:53 AM 57.0 °F 55.9 °F 96% 30.06 in 5.0 mi West 6.9 mph - 0.80 in Rain , Thunderstorm Thunderstorms and Rain
2:49 AM 57.2 °F 55.4 °F 94% 30.04 in 10.0 mi SE 5.8 mph - 0.07 in   Partly Cloudy
2:53 AM 57.0 °F 55.9 °F 96% 30.02 in 10.0 mi ESE 4.6 mph - 0.07 in   Partly Cloudy
3:45 AM 57.2 °F 55.4 °F 94% 30.06 in 10.0 mi South 8.1 mph - N/A   Mostly Cloudy
3:53 AM 57.0 °F 55.9 °F 96% 30.04 in 10.0 mi SSE 5.8 mph - N/A   Mostly Cloudy
4:04 AM 57.2 °F 55.4 °F 94% 30.04 in 10.0 mi SE 6.9 mph - N/A   Overcast
4:53 AM 57.0 °F 55.0 °F 93% 30.00 in 10.0 mi East 6.9 mph - N/A   Clear
5:38 AM 55.4 °F 53.6 °F 94% 30.03 in 10.0 mi South 6.9 mph - N/A   Partly Cloudy
5:53 AM 54.0 °F 54.0 °F 100% 30.01 in 10.0 mi SSE 6.9 mph - N/A   Clear
6:53 AM 54.0 °F 53.1 °F 97% 30.01 in 10.0 mi SE 5.8 mph - N/A   Partly Cloudy
7:53 AM 55.0 °F 54.0 °F 96% 30.01 in 9.0 mi SE 5.8 mph - N/A   Clear
8:53 AM 57.9 °F 55.9 °F 93% 30.02 in 10.0 mi SSE 6.9 mph - N/A   Clear
9:53 AM 63.0 °F 59.0 °F 87% 30.02 in 10.0 mi South 10.4 mph - N/A   Partly Cloudy
10:12 AM 64.4 °F 60.8 °F 88% 30.03 in 10.0 mi South 11.5 mph - N/A   Mostly Cloudy
10:53 AM 66.0 °F 61.0 °F 84% 30.01 in 10.0 mi SSW 13.8 mph - N/A   Overcast
11:00 AM 66.2 °F 60.8 °F 83% 30.03 in 10.0 mi SSW 15.0 mph - N/A   Mostly Cloudy
11:26 AM 69.8 °F 60.8 °F 73% 30.02 in 10.0 mi SW 15.0 mph - N/A   Mostly Cloudy
11:53 AM 70.0 °F 62.1 °F 76% 30.00 in 10.0 mi SW 13.8 mph 21.9 mph N/A   Scattered Clouds
12:53 PM 71.1 °F 62.1 °F 73% 29.98 in 10.0 mi SSW 16.1 mph - N/A   Overcast
1:07 PM 71.6 °F 62.6 °F 73% 29.99 in 10.0 mi SSW 15.0 mph - N/A   Overcast
1:34 PM 71.6 °F 62.6 °F 73% 29.98 in 10.0 mi South 11.5 mph - N/A   Overcast
1:53 PM 72.0 °F 62.1 °F 71% 29.96 in 10.0 mi South 13.8 mph 19.6 mph N/A   Overcast
2:53 PM 73.0 °F 62.1 °F 68% 29.93 in 10.0 mi SSW 10.4 mph - N/A   Overcast
3:53 PM 73.9 °F 62.1 °F 66% 29.91 in 10.0 mi South 13.8 mph - N/A   Overcast
4:53 PM 75.0 °F 62.1 °F 64% 29.89 in 10.0 mi South 13.8 mph - N/A   Scattered Clouds
5:53 PM 75.0 °F 62.1 °F 64% 29.88 in 10.0 mi South 11.5 mph - N/A   Mostly Cloudy
6:53 PM 73.9 °F 60.1 °F 62% 29.86 in 10.0 mi SSE 11.5 mph - N/A   Clear
7:53 PM 72.0 °F 60.1 °F 66% 29.86 in 10.0 mi SSE 11.5 mph - N/A   Clear
8:53 PM 70.0 °F 60.1 °F 71% 29.88 in 10.0 mi SE 8.1 mph - N/A   Overcast
9:53 PM 68.0 °F 61.0 °F 78% 29.89 in 10.0 mi ESE 6.9 mph - N/A   Clear
10:53 PM 66.0 °F 61.0 °F 84% 29.89 in 10.0 mi SSE 6.9 mph - N/A   Clear
11:53 PM 64.9 °F 60.1 °F 84% 29.87 in 10.0 mi SSE 6.9 mph - N/A   Clear